WB3DCA Weather Reports


time (UTC)temp
C
wind
direction
speed
KPH
gust
KPH
rain 1hr
cm
rain 24hr
cm
rain mn
cm
humidity
%
barometer
mb
20260507145042 14 161 0.0 12.9 0.00 0.66 0.05 65 1008.7
20260507144612 14 107 4.8 12.9 0.00 0.66 0.05 64 1008.7
20260507144043 13 0 3.2 9.7 0.00 0.66 0.05 67 1008.7
20260507143544 13 287 1.6 16.1 0.00 0.66 0.05 67 1008.7
20260507143049 13 346 3.2 16.1 0.00 0.66 0.05 68 1008.7
20260507142542 13 355 1.6 9.7 0.00 0.66 0.05 64 1008.7
20260507142042 13 87 3.2 11.3 0.00 0.66 0.05 66 1008.6
20260507141609 13 59 1.6 11.3 0.00 0.66 0.05 63 1008.5
20260507141042 13 259 0.0 8.0 0.00 0.66 0.05 67 1008.4
20260507140541 13 0 3.2 16.1 0.00 0.66 0.05 62 1008.6
20260507140049 13 310 6.4 16.1 0.00 0.66 0.05 62 1008.5
20260507135546 13 57 3.2 8.0 0.00 0.66 0.05 65 1008.6
20260507135044 13 0 1.6 11.3 0.00 0.66 0.05 67 1008.5
20260507134550 13 147 4.8 11.3 0.00 0.66 0.05 64 1008.3
20260507134042 13 225 1.6 11.3 0.00 0.66 0.05 67 1008.5
20260507133541 13 255 1.6 11.3 0.00 0.66 0.05 66 1008.5
20260507133049 13 152 3.2 9.7 0.00 0.66 0.05 70 1008.5
20260507132542 13 0 3.2 9.7 0.00 0.66 0.05 70 1008.7
20260507132043 12 168 1.6 6.4 0.00 0.66 0.05 70 1008.7
20260507131546 12 0 1.6 12.9 0.00 0.66 0.05 71 1008.8
20260507131042 12 157 1.6 12.9 0.00 0.66 0.05 72 1008.8
20260507130541 12 284 1.6 9.7 0.00 0.66 0.05 71 1008.8
20260507130055 12 94 1.6 9.7 0.00 0.66 0.05 69 1008.8
20260507125542 12 66 3.2 8.0 0.00 0.66 0.05 72 1008.7
20260507125043 12 0 1.6 8.0 0.00 0.66 0.05 71 1008.7
20260507124548 11 153 1.6 8.0 0.00 0.66 0.05 71 1008.7
20260507124042 11 332 1.6 8.0 0.00 0.66 0.05 74 1008.8
20260507123543 11 47 1.6 8.0 0.00 0.66 0.05 78 1008.8
20260507123050 11 24 3.2 6.4 0.00 0.66 0.05 73 1008.8
20260507122540 11 308 3.2 6.4 0.00 0.66 0.05 76 1008.8
20260507122042 11 355 1.6 6.4 0.00 0.66 0.05 79 1008.9
20260507121549 11 124 3.2 6.4 0.00 0.66 0.05 79 1009.1
20260507121043 10 13 0.0 8.0 0.00 0.66 0.05 80 1009.1
20260507120542 10 17 1.6 8.0 0.00 0.66 0.05 79 1009.1
20260507120050 10 355 1.6 8.0 0.00 0.66 0.05 83 1009.1
20260507115541 10 333 0.0 6.4 0.00 0.66 0.05 85 1009.1
20260507115041 10 86 1.6 9.7 0.00 0.66 0.05 83 1009.1
20260507114544 10 13 1.6 9.7 0.00 0.66 0.05 85 1009.0
20260507114044 9 24 0.0 9.7 0.00 0.66 0.05 86 1009.0
20260507113542 9 0 1.6 9.7 0.00 0.66 0.05 87 1008.9
20260507113044 8 162 0.0 3.2 0.00 0.66 0.05 89 1008.9
20260507112542 8 5 0.0 4.8 0.03 0.66 0.05 88 1008.8
20260507112042 8 0 0.0 4.8 0.03 0.66 0.05 88 1008.9
20260507111551 8 119 0.0 0.0 0.03 0.66 0.05 88 1009.0
20260507111139 8 0 0.0 3.2 0.03 0.66 0.05 88 1008.9
20260507110542 7 0 0.0 3.2 0.03 0.66 0.05 87 1008.8
20260507110050 7 0 0.0 6.4 0.03 0.66 0.05 88 1008.5
20260507105542 7 0 1.6 6.4 0.03 0.66 0.05 88 1008.6
20260507105044 7 332 0.0 4.8 0.03 0.66 0.05 89 1008.5
20260507104556 7 0 1.6 4.8 0.03 0.66 0.05 88 1008.3
20260507104045 7 0 0.0 4.8 0.03 0.66 0.05 88 1008.2
20260507103543 7 0 0.0 4.8 0.03 0.66 0.05 88 1008.3
20260507103055 7 0 0.0 4.8 0.03 0.66 0.05 89 1008.4
20260507102542 7 0 0.0 4.8 0.00 0.64 0.03 89 1008.2
20260507102042 7 0 0.0 4.8 0.00 0.64 0.03 89 1008.2
20260507101551 7 0 0.0 4.8 0.00 0.64 0.03 89 1008.3
20260507101045 7 175 0.0 0.0 0.00 0.64 0.03 88 1008.3
20260507100541 7 0 0.0 0.0 0.00 0.64 0.03 88 1008.3
20260507100045 7 0 0.0 0.0 0.00 0.64 0.03 89 1008.2
20260507095542 7 0 0.0 0.0 0.00 0.64 0.03 88 1008.5
20260507095044 7 0 0.0 0.0 0.00 0.64 0.03 88 1008.6
20260507094549 7 0 0.0 8.0 0.00 0.64 0.03 89 1008.6
20260507094041 7 0 0.0 8.0 0.00 0.64 0.03 89 1008.6
20260507093542 7 143 0.0 4.8 0.00 0.64 0.03 90 1008.5
20260507093052 7 175 0.0 4.8 0.00 0.64 0.03 91 1008.3
20260507092542 7 53 0.0 6.4 0.00 0.64 0.03 90 1008.3
20260507092042 7 0 0.0 6.4 0.00 0.64 0.03 91 1008.3
20260507091548 7 142 0.0 8.0 0.00 0.64 0.03 92 1008.5
20260507091042 7 0 0.0 8.0 0.00 0.64 0.03 92 1008.4
20260507090541 7 264 0.0 3.2 0.00 0.64 0.03 93 1008.5
20260507090047 7 0 0.0 3.2 0.00 0.64 0.03 93 1008.1
20260507085542 7 0 0.0 3.2 0.00 0.64 0.03 93 1008.4
20260507085047 7 264 0.0 3.2 0.00 0.64 0.03 93 1008.7
20260507084547 7 0 0.0 1.6 0.00 0.64 0.03 92 1008.3
20260507084040 7 0 0.0 1.6 0.03 0.64 0.03 92 1008.2
20260507083543 7 0 0.0 1.6 0.03 0.64 0.03 92 1008.1
20260507083050 7 0 0.0 1.6 0.03 0.64 0.03 92 1007.9
20260507082544 7 0 0.0 0.0 0.03 0.64 0.03 92 1008.1
20260507082041 7 0 0.0 3.2 0.03 0.64 0.03 91 1007.9
20260507081548 7 0 0.0 3.2 0.03 0.64 0.03 90 1008.0
20260507081044 8 217 0.0 6.4 0.03 0.64 0.03 90 1008.0
20260507080543 8 0 0.0 6.4 0.03 0.64 0.03 89 1007.8
20260507080052 8 0 0.0 6.4 0.03 0.64 0.03 88 1008.0
20260507075542 8 0 0.0 6.4 0.03 0.64 0.03 88 1008.0
20260507075043 8 0 0.0 6.4 0.03 0.64 0.03 88 1008.3
20260507074546 8 157 0.0 4.8 0.00 0.61 0.00 88 1008.3
20260507074041 8 188 0.0 3.2 0.00 0.61 0.00 87 1008.2
20260507073539 8 0 0.0 8.0 0.00 0.61 0.00 89 1008.1
20260507073055 8 0 1.6 8.0 0.00 0.61 0.00 89 1008.2
20260507072542 8 63 0.0 6.4 0.00 0.61 0.00 88 1007.9
20260507072045 8 57 0.0 3.2 0.00 0.61 0.00 89 1007.7
20260507071552 8 233 0.0 3.2 0.00 0.61 0.00 90 1007.9
20260507071041 8 0 0.0 4.8 0.00 0.61 0.00 90 1007.7
20260507070542 8 0 0.0 4.8 0.00 0.61 0.00 90 1007.8
20260507070057 8 205 0.0 6.4 0.00 0.61 0.00 90 1007.8
20260507065544 8 0 1.6 6.4 0.00 0.61 0.00 91 1008.0
20260507065041 8 55 0.0 6.4 0.00 0.61 0.00 90 1007.7
20260507064548 8 0 0.0 6.4 0.00 0.61 0.00 90 1007.7
20260507064042 8 217 0.0 6.4 0.00 0.61 0.00 90 1007.8
20260507063545 8 219 1.6 8.0 0.00 0.61 0.00 90 1007.9
20260507063051 8 195 0.0 8.0 0.00 0.61 0.00 90 1007.6
20260507062542 8 148 1.6 6.4 0.00 0.61 0.00 90 1007.3
20260507062040 8 0 0.0 6.4 0.00 0.61 0.00 91 1007.5
20260507061551 8 107 0.0 6.4 0.00 0.61 0.00 91 1007.3
20260507061040 8 314 1.6 6.4 0.00 0.61 0.00 91 1007.6
20260507060541 8 0 0.0 6.4 0.00 0.61 0.00 91 1007.4
20260507060058 8 0 1.6 12.9 0.00 0.61 0.00 91 1007.6
20260507055542 8 0 1.6 12.9 0.00 0.61 0.00 92 1007.8
20260507055041 9 0 0.0 6.4 0.00 0.61 0.00 92 1007.9
20260507054550 9 0 1.6 4.8 0.00 0.61 0.00 92 1007.9
20260507054041 9 0 1.6 4.8 0.00 0.61 0.00 92 1007.8
20260507053542 9 130 0.0 4.8 0.00 0.61 0.00 94 1007.8
20260507053054 9 290 0.0 4.8 0.00 0.61 0.00 94 1007.9
20260507052541 9 0 0.0 3.2 0.00 0.61 0.00 94 1007.9
20260507052042 9 0 0.0 3.2 0.00 0.61 0.00 94 1007.9
20260507051549 9 0 0.0 3.2 0.00 0.61 0.00 94 1007.8
20260507051042 9 252 0.0 3.2 0.00 0.61 0.00 94 1007.9
20260507050542 9 0 0.0 4.8 0.00 0.61 0.00 94 1007.7
20260507050050 9 0 1.6 9.7 0.00 0.61 0.00 94 1007.7
20260507045542 10 0 0.0 12.9 0.00 0.61 0.00 94 1007.5
20260507045042 10 196 1.6 12.9 0.00 0.61 0.00 93 1007.6
20260507044554 10 260 0.0 8.0 0.00 0.61 0.00 94 1007.5
20260507044041 10 292 1.6 8.0 0.00 0.61 0.00 94 1007.7
20260507043543 10 229 0.0 3.2 0.00 0.61 0.00 95 1007.8
20260507043051 10 0 0.0 3.2 0.00 0.61 0.00 95 1007.8
20260507042542 10 0 0.0 3.2 0.00 0.61 0.00 95 1007.8
20260507042044 10 0 0.0 4.8 0.00 0.61 0.00 94 1007.9
20260507041549 10 0 0.0 4.8 0.00 0.61 0.00 94 1008.0
20260507041041 10 180 1.6 4.8 0.00 0.61 0.00 94 1008.0
20260507040545 10 206 0.0 6.4 0.00 0.61 0.00 94 1007.9
20260507040050 10 0 1.6 6.4 0.00 0.61 0.00 94 1007.7
20260507035541 10 264 0.0 6.4 0.00 0.61 0.61 93 1007.4
20260507035042 10 0 1.6 6.4 0.00 0.61 0.61 94 1007.4
20260507034545 10 253 0.0 4.8 0.00 0.61 0.61 94 1007.4
20260507034041 11 281 0.0 16.1 0.00 0.61 0.61 93 1007.2
20260507033546 11 321 1.6 16.1 0.00 0.61 0.61 93 1007.1
20260507033044 11 336 1.6 8.0 0.00 0.61 0.61 93 1007.3
20260507032542 11 248 0.0 8.0 0.00 0.61 0.61 94 1007.3
20260507032041 12 40 1.6 8.0 0.00 0.61 0.61 94 1007.1
20260507031548 12 262 1.6 14.5 0.00 0.61 0.61 95 1007.2
20260507031039 12 351 3.2 14.5 0.00 0.61 0.61 95 1007.1
20260507030543 12 345 3.2 14.5 0.00 0.61 0.61 95 1007.0
20260507030054 13 0 1.6 6.4 0.00 0.61 0.61 95 1007.1
20260507025544 13 0 1.6 6.4 0.00 0.61 0.61 95 1007.1
20260507025041 13 65 0.0 4.8 0.00 0.61 0.61 96 1006.9
20260507024553 14 76 1.6 4.8 0.00 0.61 0.61 96 1006.7
20260507024041 14 229 0.0 4.8 0.00 0.61 0.61 97 1006.8
20260507023542 14 227 1.6 6.4 0.00 0.61 0.61 97 1006.8
20260507023048 14 0 0.0 6.4 0.00 0.61 0.61 97 1006.7
20260507022541 14 272 3.2 6.4 0.00 0.61 0.61 97 1006.5
20260507022042 14 252 3.2 6.4 0.00 0.61 0.61 97 1006.1
20260507021549 14 246 3.2 6.4 0.00 0.61 0.61 97 1006.1
20260507021041 14 260 3.2 6.4 0.00 0.61 0.61 97 1006.1
20260507020542 14 253 3.2 6.4 0.00 0.61 0.61 97 1006.1
20260507020050 14 249 3.2 6.4 0.00 0.61 0.61 97 1006.2
20260507015541 14 249 3.2 6.4 0.00 0.61 0.61 96 1006.1
20260507015041 14 246 3.2 6.4 0.00 0.61 0.61 96 1006.2
20260507014544 14 267 3.2 6.4 0.00 0.61 0.61 96 1006.1
20260507014042 14 261 3.2 8.0 0.00 0.61 0.61 96 1006.1
20260507013541 14 239 4.8 11.3 0.00 0.61 0.61 96 1006.1
20260507013055 14 238 4.8 11.3 0.00 0.61 0.61 96 1006.1
20260507012542 14 243 3.2 11.3 0.00 0.61 0.61 96 1006.1
20260507012042 14 248 4.8 11.3 0.00 0.61 0.61 96 1006.1
20260507011548 14 252 4.8 11.3 0.00 0.61 0.61 96 1006.1
20260507011042 14 234 4.8 11.3 0.00 0.61 0.61 96 1006.1
20260507010543 14 257 4.8 11.3 0.00 0.61 0.61 96 1006.0
20260507010050 14 248 4.8 8.0 0.00 0.61 0.61 96 1006.2
20260507005542 14 244 4.8 8.0 0.00 0.61 0.61 96 1006.1
20260507005043 14 260 4.8 11.3 0.00 0.61 0.61 96 1006.1
20260507004549 14 246 4.8 11.3 0.00 0.61 0.61 96 1006.0
20260507004041 14 238 4.8 11.3 0.00 0.61 0.61 96 1006.0
20260507003544 14 246 4.8 11.3 0.00 0.61 0.61 97 1005.8
20260507003056 14 232 4.8 11.3 0.00 0.61 0.61 97 1005.8
20260507002544 14 237 4.8 11.3 0.00 0.61 0.61 96 1005.9
20260507002042 14 248 4.8 11.3 0.00 0.61 0.61 96 1006.0
20260507001550 14 248 4.8 11.3 0.00 0.61 0.61 97 1005.9
20260507001041 14 254 6.4 11.3 0.00 0.61 0.61 96 1005.8
20260507000544 14 267 4.8 9.7 0.03 0.61 0.61 97 1005.9
20260507000054 14 243 4.8 11.3 0.03 0.61 0.61 96 1005.9
20260506235542 14 237 4.8 11.3 0.03 0.61 0.61 96 1005.7
20260506235045 14 242 4.8 12.9 0.03 0.61 0.61 96 1005.8
20260506234554 14 242 4.8 12.9 0.03 0.61 0.61 96 1005.8
20260506234043 14 246 4.8 12.9 0.03 0.61 0.61 96 1005.6
20260506233542 14 250 4.8 9.7 0.03 0.61 0.61 96 1005.6
20260506233100 14 244 4.8 11.3 0.03 0.61 0.61 96 1005.7
20260506232542 14 240 3.2 11.3 0.03 0.61 0.61 96 1005.8
20260506232040 14 248 4.8 9.7 0.03 0.61 0.61 96 1005.8
20260506231553 14 237 4.8 9.7 0.03 0.61 0.61 96 1005.7
20260506231041 14 233 4.8 11.3 0.03 0.61 0.61 96 1005.8
20260506230540 14 238 4.8 11.3 0.00 0.58 0.58 96 1005.8
20260506230049 14 242 4.8 11.3 0.00 0.58 0.58 96 1006.0
20260506225542 14 229 4.8 11.3 0.00 0.58 0.58 96 1006.0
20260506225042 14 241 4.8 12.9 0.00 0.58 0.58 96 1006.0
20260506224602 14 252 6.4 12.9 0.00 0.58 0.58 96 1006.0
20260506224043 14 231 6.4 11.3 0.00 0.58 0.58 96 1005.9
20260506223543 14 242 6.4 12.9 0.00 0.58 0.58 96 1006.0
20260506223052 14 233 4.8 12.9 0.03 0.58 0.58 96 1006.1
20260506222545 14 239 4.8 12.9 0.03 0.58 0.58 96 1006.2
20260506222043 14 239 3.2 8.0 0.05 0.58 0.58 96 1006.1
20260506221554 14 235 4.8 11.3 0.05 0.58 0.58 96 1006.1
20260506221043 14 245 3.2 11.3 0.08 0.58 0.58 96 1006.3
20260506220544 14 231 4.8 11.3 0.08 0.58 0.58 96 1006.2
20260506220051 15 257 3.2 11.3 0.10 0.58 0.58 96 1006.4
20260506215543 15 238 4.8 11.3 0.13 0.58 0.58 96 1006.4
20260506215043 15 242 4.8 8.0 0.15 0.58 0.58 96 1006.4
20260506214607 15 233 3.2 8.0 0.15 0.58 0.58 96 1006.4
20260506214044 15 239 3.2 11.3 0.18 0.58 0.58 95 1006.4
20260506213544 15 247 4.8 12.9 0.18 0.58 0.58 95 1006.4
20260506213050 15 230 6.4 12.9 0.15 0.56 0.56 95 1006.5
20260506212544 15 223 4.8 12.9 0.13 0.53 0.53 95 1006.5
20260506212043 15 216 4.8 11.3 0.13 0.53 0.53 95 1006.5
20260506211547 15 240 4.8 11.3 0.15 0.53 0.53 95 1006.6
20260506211043 15 233 4.8 11.3 0.13 0.51 0.51 95 1006.6
20260506210543 15 234 4.8 14.5 0.15 0.51 0.51 95 1006.6
20260506210054 15 242 4.8 14.5 0.13 0.48 0.48 95 1006.7
20260506205543 15 221 6.4 11.3 0.13 0.46 0.46 95 1006.7
20260506205043 15 248 3.2 12.9 0.10 0.43 0.43 95 1006.8
20260506204559 15 265 4.8 12.9 0.10 0.43 0.43 95 1006.8
20260506204041 15 247 4.8 11.3 0.08 0.41 0.41 95 1006.8
20260506203544 15 227 4.8 8.0 0.08 0.41 0.41 95 1006.8
20260506203052 15 233 3.2 8.0 0.08 0.41 0.41 94 1006.8
20260506202542 15 235 3.2 11.3 0.08 0.41 0.41 94 1006.8
20260506202042 15 232 6.4 12.9 0.08 0.41 0.41 94 1006.8
20260506201555 15 234 4.8 12.9 0.05 0.38 0.38 94 1006.8
20260506201041 15 241 4.8 9.7 0.05 0.38 0.38 94 1006.9
20260506200543 15 246 4.8 9.7 0.05 0.36 0.36 94 1007.0
20260506200051 16 224 4.8 8.0 0.05 0.36 0.36 94 1007.0
20260506195542 16 250 4.8 8.0 0.03 0.33 0.33 94 1007.0
20260506195044 16 255 3.2 6.4 0.05 0.33 0.33 94 1007.0
20260506194600 16 252 3.2 6.4 0.05 0.33 0.33 94 1007.0
20260506194050 16 241 3.2 4.8 0.08 0.33 0.33 94 1007.1
20260506193541 16 235 1.6 4.8 0.08 0.33 0.33 94 1006.9
20260506193100 16 223 3.2 4.8 0.08 0.33 0.33 94 1007.0
20260506192541 16 211 3.2 4.8 0.10 0.33 0.33 94 1007.1
20260506192044 16 240 1.6 4.8 0.13 0.33 0.33 94 1007.0
20260506191555 16 240 1.6 6.4 0.18 0.33 0.33 93 1006.8
20260506191044 16 240 1.6 6.4 0.20 0.33 0.33 93 1007.0
20260506190544 16 250 3.2 6.4 0.18 0.30 0.30 93 1007.3
20260506190053 16 0 0.0 4.8 0.20 0.30 0.30 93 1007.2
20260506185543 16 217 0.0 3.2 0.20 0.30 0.30 93 1007.3
20260506185040 16 0 0.0 3.2 0.18 0.28 0.28 92 1007.4
20260506184557 16 0 0.0 3.2 0.20 0.28 0.28 92 1007.5
20260506184042 16 217 1.6 3.2 0.20 0.25 0.25 92 1007.7
20260506183542 16 217 1.6 3.2 0.23 0.25 0.25 92 1007.6
20260506183100 16 0 0.0 3.2 0.23 0.23 0.23 92 1007.6
20260506182541 16 217 0.0 3.2 0.23 0.23 0.23 91 1007.9
20260506182041 16 0 0.0 0.0 0.20 0.20 0.20 91 1008.0
20260506181552 16 0 0.0 0.0 0.15 0.15 0.15 90 1007.9
20260506181042 16 0 0.0 0.0 0.13 0.13 0.13 90 1007.9
20260506180541 16 0 0.0 0.0 0.13 0.13 0.13 89 1007.8
20260506180055 16 0 0.0 1.6 0.10 0.10 0.10 89 1008.0
20260506175542 16 0 0.0 4.8 0.10 0.10 0.10 88 1008.0
20260506175044 17 0 1.6 9.7 0.10 0.10 0.10 86 1008.0
20260506174556 17 257 1.6 12.9 0.08 0.08 0.08 84 1008.2
20260506174041 18 252 4.8 12.9 0.05 0.05 0.05 80 1008.2
20260506173544 19 258 6.4 14.5 0.03 0.03 0.03 72 1007.9
20260506173059 21 255 6.4 14.5 0.00 0.00 0.00 64 1007.6
20260506172542 21 259 6.4 14.5 0.00 0.00 0.00 62 1007.5
20260506172041 21 243 6.4 17.7 0.00 0.00 0.00 60 1007.5
20260506171557 21 251 8.0 17.7 0.00 0.00 0.00 60 1007.7
20260506171042 22 238 8.0 17.7 0.00 0.00 0.00 60 1007.7
20260506170544 22 232 6.4 17.7 0.00 0.00 0.00 60 1007.8
20260506170059 22 266 11.3 17.7 0.00 0.00 0.00 60 1007.8
20260506165543 22 241 9.7 17.7 0.00 0.00 0.00 61 1007.9
20260506165043 22 250 8.0 16.1 0.00 0.00 0.00 60 1007.8
20260506164558 22 236 4.8 14.5 0.00 0.00 0.00 62 1007.9
20260506164042 21 259 6.4 14.5 0.00 0.00 0.00 63 1008.0
20260506163542 21 259 4.8 11.3 0.00 0.00 0.00 63 1008.1
20260506163203 21 261 4.8 11.3 0.00 0.00 0.00 65 1008.3
20260506162542 21 225 3.2 14.5 0.00 0.00 0.00 65 1008.4
20260506162045 21 211 4.8 17.7 0.00 0.00 0.00 65 1008.5
20260506161551 21 236 8.0 17.7 0.00 0.00 0.00 64 1008.6
20260506161043 21 203 6.4 16.1 0.00 0.00 0.00 65 1008.7
20260506160542 21 239 8.0 16.1 0.00 0.00 0.00 65 1008.7
20260506160052 20 230 6.4 16.1 0.00 0.00 0.00 65 1008.9
20260506155541 20 244 8.0 14.5 0.00 0.00 0.00 66 1009.0
20260506155043 20 227 8.0 14.5 0.00 0.00 0.00 66 1009.1
20260506154613 20 242 4.8 14.5 0.00 0.00 0.00 66 1009.1
20260506154043 20 254 6.4 14.5 0.00 0.00 0.00 65 1009.2
20260506153542 20 248 4.8 11.3 0.00 0.00 0.00 66 1009.1
20260506153050 20 245 3.2 11.3 0.00 0.00 0.00 66 1009.3
20260506152545 20 236 4.8 14.5 0.00 0.00 0.00 66 1009.3
20260506152043 20 241 8.0 16.1 0.00 0.00 0.00 66 1009.3
20260506151554 20 279 6.4 16.1 0.00 0.00 0.00 66 1009.4
20260506151042 20 252 9.7 16.1 0.00 0.00 0.00 65 1009.5
20260506150545 21 245 8.0 16.1 0.00 0.00 0.00 66 1009.4
20260506150053 20 244 4.8 12.9 0.00 0.00 0.00 66 1009.3
20260506145545 20 246 6.4 12.9 0.00 0.00 0.00 66 1009.3